Theta_e
298 298 296 296 295 294 293 291 288 284 285 289 289 293 294 294 294 294 294 293 293 293 293 293 293 294 294 295 296 297 298 299 300 302 304 305 308 309
298 296 295 294 294 293 292 292 290 288 284 288 289 291 292 290 292 292 292 293 292 292 293 292 293 294 293 293 295 295 296 297 298 299 302 302 305 307
295 295 293 294 292 292 292 291 290 289 286 288 289 290 289 289 289 290 291 291 291 292 292 293 293 293 292 292 292 293 295 296 297 298 299 300 301 304
293 292 291 291 290 290 290 288 288 288 286 283 285 286 286 287 288 288 288 288 290 291 292 292 292 292 292 291 291 292 293 294 296 296 297 297 297 299
292 291 290 289 288 288 287 286 286 286 286 284 283 285 285 286 286 287 287 288 288 290 291 291 291 292 292 291 291 291 293 293 295 296 296 294 294 295
291 290 289 288 287 285 284 284 284 283 282 282 281 282 284 285 285 284 284 287 286 287 289 289 291 291 291 291 291 291 292 293 295 295 294 293 292 293
290 289 288 286 284 283 283 282 282 281 280 280 280 281 282 282 282 284 283 284 286 287 287 288 289 291 292 291 291 291 290 291 292 295 294 292 292 292
287 287 287 287 286 284 284 282 282 280 280 280 280 279 280 281 283 283 283 282 280 288 286 286 289 289 290 291 290 289 289 290 290 294 294 292 292 291
287 286 285 285 285 284 283 282 282 283 282 282 280 281 281 282 282 281 282 282 282 285 285 283 287 287 289 290 290 289 288 289 289 290 293 292 291 290
287 286 285 285 283 281 280 280 281 282 283 282 282 281 282 282 282 282 282 283 284 285 286 281 286 286 289 290 290 290 289 288 289 289 291 292 291 291
286 286 285 283 281 280 279 278 279 280 283 283 282 282 283 284 284 283 282 281 280 281 285 283 285 285 287 288 290 290 289 289 289 289 289 292 291 290
286 285 282 280 279 278 278 277 277 279 279 279 280 282 283 284 284 284 284 281 281 280 284 282 283 284 282 288 289 291 291 288 289 289 289 292 292 292
283 283 284 280 279 278 278 277 278 278 278 279 280 281 282 283 283 285 285 284 282 282 286 284 283 283 283 283 287 289 291 291 290 290 289 290 293 293
282 283 283 280 278 278 278 278 277 277 280 279 279 279 280 280 282 284 286 286 287 286 287 286 284 283 282 282 282 287 289 292 292 291 291 291 291 291
283 282 280 279 278 279 279 278 277 279 278 277 277 278 280 281 283 284 285 286 286 288 287 287 286 285 284 282 282 285 285 289 291 291 292 291 292 292
283 283 281 280 279 278 280 281 280 280 277 277 277 279 280 281 281 283 282 283 284 285 287 288 287 286 284 284 284 284 286 285 289 290 291 292 292 293
280 281 281 281 280 281 281 280 280 280 278 277 277 277 278 278 279 281 281 282 281 282 283 285 287 286 286 285 283 285 285 286 288 289 288 287 289 292
280 280 281 281 280 279 279 279 280 279 278 277 277 277 276 277 277 279 280 280 279 280 281 284 285 284 284 285 284 284 286 286 288 288 287 286 287 290
279 280 281 281 281 280 280 279 278 279 277 278 277 277 276 276 277 278 278 278 278 279 281 283 283 280 279 279 282 283 283 287 287 286 287 287 286 287
280 280 280 281 281 280 280 280 279 279 278 277 277 277 277 276 275 276 277 277 277 278 279 281 280 279 278 278 282 282 282 285 285 285 285 287 285 283
281 282 283 282 281 281 281 280 279 278 277 277 277 276 277 276 276 275 276 276 276 277 276 277 280 282 283 284 282 282 282 282 283 283 285 285 284 285
283 282 283 283 283 282 281 281 279 279 278 278 277 277 277 276 276 275 275 274 275 275 276 278 281 282 282 282 281 281 282 282 282 281 281 281 282 281
284 283 284 284 283 282 281 280 279 279 278 277 277 277 276 275 276 276 276 275 275 275 275 276 279 281 281 280 279 281 281 281 282 282 281 281 281 282
Wind_Speed
10 9 8 8 8 8 8 10 11 14 14 13 13 14 10 11 12 13 14 19 19 20 20 21 22 20 18 19 19 19 19 19 20 21 18 20 19 19
7 8 8 7 8 8 11 11 11 13 16 13 12 14 14 13 15 14 15 20 20 21 21 24 22 21 15 14 16 19 18 18 19 20 19 17 20 19
8 8 10 10 9 10 10 10 11 11 14 12 12 14 16 16 14 14 14 14 13 20 21 20 22 14 12 12 14 17 18 17 18 18 19 17 19 22
9 10 11 10 13 14 11 14 13 14 13 18 15 12 15 16 15 16 13 13 13 19 21 8 5 11 13 13 13 16 17 17 16 16 16 15 11 17
8 10 12 13 13 11 12 12 12 12 12 10 12 10 11 12 14 14 14 13 11 20 18 16 20 22 18 14 15 15 17 18 15 12 11 12 13 19
10 11 12 11 11 12 12 13 12 12 12 10 11 12 12 13 12 12 11 10 11 12 14 14 10 15 19 18 18 17 17 18 15 10 8 10 8 16
10 10 10 7 6 8 7 12 13 11 10 10 11 11 10 11 13 11 12 11 11 10 10 11 9 9 10 16 20 14 3 5 9 10 7 8 7 11
10 10 10 10 6 8 15 9 12 13 15 12 12 12 15 13 12 11 11 11 11 8 7 9 8 9 8 7 8 6 1 4 12 9 9 6 3 8
9 10 10 8 7 11 13 14 15 18 15 14 15 14 14 14 14 14 14 12 12 10 10 10 7 7 7 7 7 2 2 3 6 13 8 8 4 1
9 10 10 10 9 10 12 14 15 15 14 10 12 13 15 16 15 14 15 15 12 11 11 10 9 8 6 7 10 7 6 5 5 8 10 10 7 6
9 9 7 9 9 13 12 13 15 14 13 15 17 20 20 22 20 11 11 10 10 9 8 6 8 8 8 8 7 13 10 9 9 4 12 9 10 9
8 9 4 4 6 11 11 12 12 13 15 15 14 14 14 14 12 11 10 11 10 9 8 6 7 7 6 7 7 7 7 11 11 6 10 6 12 5
7 7 6 9 11 13 13 10 10 14 14 12 11 10 9 10 10 11 12 10 10 10 10 8 7 7 6 6 3 5 4 4 6 6 10 8 13 8
8 7 7 13 14 14 12 9 14 13 8 7 9 9 8 9 9 11 12 11 10 13 12 10 6 8 7 7 7 5 4 3 5 7 6 7 3 4
7 7 11 12 12 11 5 10 11 6 8 7 8 8 8 9 11 10 11 13 11 11 8 9 7 7 6 7 6 6 2 3 3 3 5 5 6 4
10 5 8 10 11 12 9 6 5 5 7 8 8 9 8 9 8 8 9 9 9 6 4 8 8 8 7 7 7 6 5 3 3 3 4 3 6 4
4 6 7 5 6 6 6 6 6 5 6 6 8 9 8 8 8 8 8 9 9 8 7 6 3 6 7 7 7 6 5 4 2 3 4 4 3 3
6 7 7 5 5 6 6 6 6 6 6 7 6 7 8 9 8 8 8 8 9 9 8 7 5 4 5 5 4 5 5 5 3 6 3 3 5 6
7 8 7 5 5 7 6 5 6 5 6 6 7 7 7 8 10 8 7 8 8 8 8 7 7 7 6 6 4 9 4 4 3 3 2 1 3 4
9 8 7 6 6 7 6 5 5 5 5 6 7 6 7 7 8 9 8 8 9 9 8 7 7 8 7 7 3 3 10 5 3 1 3 2 4 4
8 9 8 7 6 6 5 4 4 5 5 5 6 6 6 7 7 7 8 9 10 8 9 8 8 9 7 5 4 4 4 10 8 5 4 1 3 4
7 8 8 7 6 5 5 4 5 6 5 4 4 5 5 6 7 7 6 8 8 7 8 8 8 7 6 4 4 3 4 4 7 11 12 8 3 3
8 8 7 7 6 6 6 6 6 5 5 4 4 4 4 6 6 6 6 6 7 8 8 8 6 6 6 4 5 4 4 4 4 4 5 8 9 8
Wind_Direction
285 271 277 277 294 302 294 283 289 296 293 298 301 300 308 316 311 315 303 295 297 296 290 285 282 277 280 286 290 296 304 311 318 314 317 323 307 314
274 276 289 292 285 286 283 287 291 291 292 297 299 314 319 311 307 310 302 302 288 275 275 266 263 260 261 280 290 293 296 303 311 316 311 311 314 312
301 295 292 299 282 284 295 301 297 296 297 305 307 311 311 309 305 304 298 292 284 280 270 273 255 234 252 266 283 295 297 295 300 308 311 314 324 320
311 305 306 295 309 311 307 306 307 305 300 304 309 306 301 303 300 297 291 297 298 298 295 290 236 250 251 251 263 279 290 293 288 298 302 302 329 328
303 295 301 316 311 308 314 313 306 303 310 310 301 299 299 298 299 294 289 284 289 283 282 280 230 235 243 250 253 263 274 285 277 283 285 304 340 351
299 321 312 305 311 332 311 311 309 315 311 301 300 301 300 301 296 295 303 295 297 299 292 279 279 244 248 244 243 244 254 269 271 273 280 296 338 354
315 302 305 344 302 292 293 307 312 308 303 297 294 296 302 306 299 297 294 303 300 285 303 293 297 287 246 237 257 253 247 349 313 272 247 286 323 10
307 312 311 302 295 291 272 288 293 296 296 293 300 297 298 300 310 308 303 295 296 304 320 303 302 305 283 294 99 141 170 353 358 285 223 248 294 30
308 311 312 310 300 338 332 314 297 280 265 272 285 294 304 308 313 310 308 302 296 301 295 290 280 268 291 281 154 207 281 323 343 342 239 207 205 45
311 306 305 327 10 349 325 304 308 306 305 315 312 310 305 304 299 296 300 296 291 285 284 294 294 276 275 271 287 250 246 258 265 312 314 202 186 162
306 302 324 309 11 348 316 314 308 307 309 324 317 303 291 285 277 283 281 289 290 288 286 278 282 274 265 262 259 246 218 221 240 258 312 207 178 159
301 309 141 24 348 326 313 311 305 310 328 315 307 305 302 302 290 272 280 275 277 286 282 293 289 292 272 241 249 239 206 204 216 227 294 281 184 168
302 304 310 23 341 318 313 297 315 316 307 300 308 305 311 323 327 325 317 308 298 278 277 284 267 281 276 296 236 281 244 171 191 190 256 282 191 197
287 301 322 340 317 309 300 311 310 301 297 315 309 318 324 326 316 310 309 303 287 268 274 277 277 290 286 291 288 294 245 246 195 181 195 185 196 91
281 298 294 296 294 290 291 287 282 313 321 317 317 319 320 318 315 315 318 310 311 270 254 260 272 277 271 273 278 286 262 222 197 215 183 176 180 174
255 261 302 271 265 261 271 292 310 318 315 314 322 315 317 323 324 327 323 331 328 9 256 250 251 260 257 268 284 283 282 261 197 192 193 178 189 218
317 290 280 299 309 309 311 312 309 321 316 332 322 321 326 330 326 328 329 333 335 345 344 348 259 225 249 263 282 275 260 262 191 168 149 175 219 242
263 277 281 285 292 300 301 305 310 317 339 315 326 324 330 331 329 328 337 340 338 340 337 339 333 209 220 224 259 295 307 248 183 153 205 232 216 197
242 261 273 278 281 284 294 300 308 331 311 319 323 327 331 329 324 333 342 342 337 333 333 341 4 1 357 259 107 27 322 276 132 134 203 215 292 43
246 261 262 260 264 273 288 299 316 316 311 329 315 331 324 327 330 337 336 347 338 323 333 349 9 4 338 341 2 79 21 17 35 273 201 173 83 125
237 236 246 251 256 266 277 288 289 292 312 292 306 321 324 326 328 338 329 339 321 346 336 343 341 314 290 283 233 134 70 52 52 21 2 223 213 192
236 255 266 261 251 255 261 255 263 257 268 282 315 306 319 321 322 330 337 332 337 340 330 332 326 326 322 332 4 118 120 95 82 72 64 49 353 12
225 233 241 251 242 232 238 253 253 268 275 283 291 302 320 304 320 320 328 334 334 336 346 321 337 337 328 348 334 356 120 173 170 157 86 57 76 82